User: anonymous   Login
Location: Alsip
(41.6689°N, 87.7387°W)
Time: 15:01:50
(UTC+00:00)
Language:

Cosmos 1356 - Orbit

View from above orbital plane
View from above orbital plane
View from above satellite
View from above satellite

Ground track
Ground track

The orbit data is extracted from the following two-line orbital elements,

1 13153U 82039A   21129.23103401  .00002143  00000-0  49613-4 0  9991
2 13153  81.0882 321.1728 0002158 186.4207 173.7008 15.41986519138085
Epoch (UTC): 09 May 2021 05:32:41
Eccentricity: 0.0002158
inclination: 81.0882°
perigee height: 439 km
apogee height: 442 km
right ascension of ascending node: 321.1728°
argument of perigee: 186.4207°
revolutions per day: 15.41986519
mean anomaly at epoch: 173.7008°
orbit number at epoch: 13808

The dashed part of the orbit path shows where the satellite is in the earth's shadow,  

DLR